Location: Carri�res
(48.9069°N, 2.1792°E)
Time: 04:20:01
(UTC+00:00)

CZ-4 R/B - Pass Details

Date: 17 January 2021
Orbit: 530 x 599 km, 97.7° (Epoch: 26 February)

Event Time Altitude Azimuth Distance (km) Brightness Sun altitude
Rises 19:26:01 0° 204° (SSW) 2,812 5.2 -29.1°
Reaches altitude 10° 19:28:42 10° 222° (SW) 1,907 4.5 -29.6°
Maximum altitude 19:31:41 19° 268° (W) 1,407 4.1 -30.0°
Drops below altitude 10° 19:34:38 10° 314° (NW) 1,891 4.6 -30.5°
Sets 19:37:18 0° 333° (NNW) 2,781 5.3 -31.0°
